[[{"header":{"parameterUnit":"m.s-1","parameterCategory":2,"la1":30.2991,"la2":30.254,"lo1":-89.0895,"lo2":-89.0444,"dy":0.0017,"dx":0.0017,"nx":28,"ny":28,"refTime":"2023-04-17T15:00:00:Z","depth":"0","parameterNumber":2,"parameterNumberName":"U-component_of_CURRENTS"},"data":[0,0,0,0,0,0,0,0,0,0,0,0,0,0,0,0,0,0,0,0,0,0,0,0,0,0,0,0,0,0,0,0,0,0,0,0,0,0,0,0,0,0,0,0,0,0,0,0,0,0,0,0,0,0,0,0,0,0,0.2277,0.2277,0,0.2296,0.2296,0.2297,0.235,0.2351,0.2353,0.2354,0.2346,0.2345,0.2344,0,0,0,0,0,0,0,0,0,0,0,0,0,0.2308,0.2307,0.2277,0.2277,0.2277,0.2296,0.2296,0.2297,0.235,0.2351,0.2353,0.2354,0.2347,0.2345,0.2344,0,0,0,0,0,0,0,0,0,0,0,0,0,0.2307,0.2306,0.2277,0.2307,0.231,0.2296,0.2296,0.2297,0.235,0.2351,0.2353,0.2355,0.2347,0.2345,0.2343,0.2294,0,0,0.2337,0.2336,0,0,0,0,0,0,0,0,0.2307,0.2305,0.2302,0.2305,0.2308,0.2323,0.2305,0.2295,0.2349,0.2334,0.2354,0.2356,0.2335,0.2334,0.2333,0.2294,0.2294,0.2337,0.2336,0.2335,0.2335,0,0,0,0,0,0,0,0.2307,0.2305,0.2284,0.2302,0.2306,0.2327,0.2328,0.2303,0.2323,0.2335,0.2339,0.2342,0.2337,0.2335,0.2333,0.2294,0.2337,0.2335,0.2334,0.2333,0.2245,0.2244,0,0,0,0,0,0,0.2302,0.2305,0.2283,0.2284,0.2313,0.2325,0.2327,0.2316,0.2324,0.2327,0.234,0.2344,0.2338,0.2336,0.2333,0.2306,0.2335,0.2333,0.2332,0.2246,0.2245,0.2244,0,0,0,0,0,0,0.2302,0.2299,0.2282,0.2297,0.2296,0.2322,0.231,0.2315,0.2314,0.2328,0.2332,0.2334,0.2339,0.2336,0.2315,0.2306,0.2332,0.233,0.2247,0.2246,0.2244,0.2232,0,0,0,0,0,0,0.2303,0.2299,0.2284,0.2296,0.2295,0.2266,0.2308,0.2314,0.2313,0.2319,0.2323,0.2325,0.234,0.2317,0.2313,0.2303,0.2329,0.2249,0.2247,0.2245,0.2234,0.2231,0.2227,0,0,0,0,0,0.2304,0.2273,0.2283,0.2281,0.2275,0.2265,0.2266,0.2291,0.2311,0.2299,0.2311,0.2325,0.2301,0.2314,0.2309,0.2299,0.225,0.2247,0.2245,0.2236,0.2231,0.2227,0,0,0,0,0,0,0.2275,0.2276,0.2287,0.2258,0.2259,0.2274,0.2266,0.2279,0.2278,0.229,0.2303,0.2304,0.2287,0.2282,0.2297,0.2266,0.2279,0.2275,0.2274,0.2269,0.2266,0.2268,0.2327,0,0,0,0,0,0.2261,0.2244,0.2249,0.2226,0.2225,0.2242,0.224,0.2259,0.2263,0.2266,0.2267,0.227,0.2269,0.2262,0.2257,0.2225,0.2237,0.2215,0.2212,0.2209,0.2205,0.221,0.2207,0.2235,0.2235,0.2235,0,0,0.2243,0.2243,0.2233,0.222,0.2227,0.2218,0.2245,0.2242,0.2237,0.2261,0.2245,0.2254,0.2257,0.2242,0.2232,0.2238,0.2209,0.2206,0.2204,0.2202,0.2207,0.2204,0.2202,0.2233,0.2234,0.2234,0,0,0.2207,0.22,0.2178,0.2175,0.2182,0.2194,0.2189,0.2196,0.2202,0.2183,0.2212,0.2212,0.2189,0.2203,0.2205,0.2168,0.2193,0.2165,0.2146,0.215,0.2148,0.2147,0.2174,0.2175,0.2161,0.2161,0.2161,0,0.218,0.2164,0.2169,0.2152,0.2151,0.218,0.2163,0.2165,0.2165,0.2166,0.2175,0.2171,0.2173,0.2172,0.217,0.2162,0.2177,0.2167,0.2148,0.2146,0.2145,0.2173,0.2174,0.216,0.216,0.216,0.216,0,0.2135,0.2125,0.2111,0.2106,0.2099,0.209,0.21,0.2099,0.2111,0.2118,0.2113,0.2121,0.2126,0.2124,0.2136,0.213,0.215,0.2149,0.2165,0.2142,0.2172,0.2174,0.2158,0.2159,0.2159,0.2159,0,0,0.2059,0.2077,0.207,0.2072,0.2078,0.2067,0.2064,0.2065,0.2069,0.2068,0.2069,0.2066,0.2086,0.2088,0.2106,0.2106,0.2118,0.2123,0.2123,0.216,0.2147,0.2297,0.2313,0.2118,0.2118,0.2118,0.2178,0,0.2021,0.1998,0.2013,0.1993,0.1985,0.2014,0.2004,0.2013,0.2028,0.2035,0.2054,0.2059,0.2067,0.2082,0.2082,0.2121,0.2119,0.2103,0.2153,0.2155,0.23,0.2319,0.253,0.2614,0.218,0.218,0.218,0,0.1965,0.1965,0.1941,0.1956,0.1952,0.1942,0.1953,0.1951,0.1979,0.199,0.2011,0.204,0.2064,0.2063,0.2104,0.2098,0.2113,0.2131,0.2134,0.2278,0.2308,0.2561,0.2633,0.2627,0.2183,0.2183,0.2183,0,0.1912,0.1909,0.1896,0.1894,0.191,0.1906,0.1915,0.1934,0.1939,0.1974,0.1995,0.2024,0.2058,0.2074,0.2149,0.2119,0.2205,0.2166,0.2306,0.2317,0.2511,0.254,0.2595,0.2164,0.2164,0.2164,0.2164,0,0.1862,0.185,0.1872,0.186,0.1844,0.1864,0.1853,0.1874,0.1904,0.1926,0.197,0.2021,0.206,0.2134,0.216,0.2285,0.2218,0.2319,0.2347,0.2515,0.2543,0.2556,0.2398,0.2166,0.2166,0.2165,0.2165,0,0.1808,0.1822,0.1811,0.1822,0.1821,0.1807,0.182,0.1819,0.1859,0.1899,0.1918,0.2021,0.2156,0.2225,0.2293,0.2331,0.2382,0.2453,0.2672,0.2726,0.2848,0.2679,0.2542,0.242,0.2608,0.2613,0.2616,0,0.1784,0.1772,0.1775,0.1765,0.1769,0.1758,0.1751,0.1785,0.1797,0.1921,0.1944,0.2104,0.2251,0.2452,0.2608,0.2737,0.2536,0.2931,0.29,0.2909,0.2738,0.25,0.2383,0.3147,0.3154,0.316,0.3165,0,0.1741,0.1741,0.1737,0.172,0.1707,0.1694,0.1698,0.1714,0.1782,0.1869,0.2039,0.2187,0.2482,0.279,0.2985,0.3065,0.2858,0.306,0.301,0.312,0.2918,0.2802,0.3042,0.322,0.3215,0.3211,0.3208,0.3206,0.1714,0.1701,0.1694,0.1684,0.166,0.1648,0.1672,0.1725,0.1808,0.2021,0.2138,0.2466,0.2903,0.3276,0.3301,0.3579,0.3203,0.3595,0.3378,0.3129,0.3039,0.3417,0.366,0.3657,0.3654,0.3652,0.365,0,0.1687,0.1677,0.1659,0.1643,0.1619,0.1621,0.1651,0.1724,0.1882,0.2154,0.2393,0.2985,0.3373,0.3651,0.4028,0.3953,0.3719,0.3838,0.3563,0.3412,0.3797,0.3864,0.4236,0.4236,0.4236,0.4236,0.4236,0.4236,0.167,0.1647,0.165,0.162,0.1612,0.1631,0.1678,0.1821,0.2025,0.2462,0.2855,0.3122,0.3569,0.4037,0.4197,0.4121,0.367,0.3652,0.3289,0.3655,0.3616,0.3578,0.3617,0.3932,0.393,0.3026,0.3019,0.3013]},{"header":{"parameterUnit":"m.s-1","parameterCategory":2,"la1":30.2991,"la2":30.254,"lo1":-89.0895,"lo2":-89.0444,"dy":0.0017,"dx":0.0017,"nx":28,"ny":28,"refTime":"2023-04-17T15:00:00:Z","depth":"0","parameterNumber":3,"parameterNumberName":"V-component_of_CURRENTS"},"data":[0,0,0,0,0,0,0,0,0,0,0,0,0,0,0,0,0,0,0,0,0,0,0,0,0,0,0,0,0,0,0,0,0,0,0,0,0,0,0,0,0,0,0,0,0,0,0,0,0,0,0,0,0,0,0,0,0,0,-0.1405,-0.1405,0,-0.147,-0.1471,-0.1472,-0.1498,-0.1498,-0.1497,-0.1497,-0.1631,-0.1635,-0.1639,0,0,0,0,0,0,0,0,0,0,0,0,0,-0.1295,-0.1297,-0.1405,-0.1405,-0.1406,-0.147,-0.1471,-0.1472,-0.1498,-0.1498,-0.1497,-0.1497,-0.163,-0.1635,-0.1639,0,0,0,0,0,0,0,0,0,0,0,0,0,-0.1351,-0.1297,-0.1405,-0.1425,-0.1428,-0.147,-0.1471,-0.1472,-0.1498,-0.1498,-0.1497,-0.1497,-0.1628,-0.1634,-0.164,-0.1686,0,0,-0.1658,-0.166,0,0,0,0,0,0,0,0,-0.1348,-0.1355,-0.1422,-0.1424,-0.1427,-0.1474,-0.1481,-0.1546,-0.1498,-0.1473,-0.1497,-0.1496,-0.1584,-0.1594,-0.1609,-0.1692,-0.1698,-0.1658,-0.1662,-0.1664,-0.1666,0,0,0,0,0,0,0,-0.1344,-0.1353,-0.1432,-0.1422,-0.1425,-0.1428,-0.1436,-0.1493,-0.1533,-0.1475,-0.1477,-0.1482,-0.1586,-0.1603,-0.1612,-0.17,-0.1658,-0.1663,-0.1667,-0.1669,-0.1847,-0.1848,0,0,0,0,0,0,-0.1334,-0.1349,-0.143,-0.1434,-0.1383,-0.1431,-0.1439,-0.1461,-0.1531,-0.1541,-0.1482,-0.1482,-0.1593,-0.1605,-0.1617,-0.1703,-0.1664,-0.167,-0.1673,-0.1846,-0.1847,-0.1849,0,0,0,0,0,0,-0.1331,-0.1341,-0.1428,-0.139,-0.1401,-0.1433,-0.1456,-0.1462,-0.148,-0.1535,-0.1546,-0.1493,-0.1593,-0.1609,-0.1684,-0.1707,-0.1672,-0.1678,-0.1844,-0.1846,-0.1848,-0.1857,0,0,0,0,0,0,-0.1328,-0.134,-0.1357,-0.139,-0.1403,-0.1464,-0.1457,-0.1464,-0.1482,-0.1484,-0.1549,-0.156,-0.1594,-0.1675,-0.1689,-0.1714,-0.1682,-0.1843,-0.1845,-0.1847,-0.1855,-0.1859,-0.1862,0,0,0,0,0,-0.1324,-0.1354,-0.1358,-0.1368,-0.1425,-0.1465,-0.1473,-0.1493,-0.1483,-0.1504,-0.1548,-0.1558,-0.1699,-0.1681,-0.1698,-0.1725,-0.1842,-0.1845,-0.1847,-0.1854,-0.1858,-0.1862,0,0,0,0,0,0,-0.1335,-0.136,-0.1365,-0.1407,-0.1436,-0.1469,-0.1494,-0.1494,-0.1543,-0.155,-0.1586,-0.1603,-0.1672,-0.1701,-0.1679,-0.1782,-0.1768,-0.1774,-0.1767,-0.1772,-0.1775,-0.174,-0.1687,0,0,0,0,0,-0.134,-0.1358,-0.1389,-0.1424,-0.144,-0.1463,-0.1481,-0.1495,-0.1535,-0.1554,-0.159,-0.1639,-0.1697,-0.1735,-0.1785,-0.1853,-0.1858,-0.1877,-0.188,-0.1883,-0.1866,-0.1913,-0.1918,-0.1858,-0.1858,-0.1858,0,0,-0.135,-0.137,-0.138,-0.1425,-0.1451,-0.1482,-0.1475,-0.1512,-0.1529,-0.1566,-0.1609,-0.1655,-0.1717,-0.1788,-0.182,-0.1816,-0.1904,-0.1887,-0.1889,-0.1869,-0.1916,-0.1922,-0.1927,-0.186,-0.1859,-0.1859,0,0,-0.1379,-0.1405,-0.1425,-0.1447,-0.1484,-0.1505,-0.1512,-0.1545,-0.1555,-0.1604,-0.1633,-0.1688,-0.1769,-0.1817,-0.1852,-0.1906,-0.1917,-0.1926,-0.1926,-0.1972,-0.1977,-0.1981,-0.1991,-0.1996,-0.1933,-0.1933,-0.1933,0,-0.1387,-0.1422,-0.1441,-0.1468,-0.1478,-0.1512,-0.1532,-0.1562,-0.1609,-0.1609,-0.162,-0.1722,-0.1778,-0.1857,-0.188,-0.1913,-0.1929,-0.1905,-0.1975,-0.198,-0.1984,-0.1993,-0.1998,-0.1934,-0.1934,-0.1934,-0.1934,0,-0.1425,-0.1452,-0.1473,-0.1509,-0.1527,-0.1559,-0.1587,-0.161,-0.1618,-0.1629,-0.1683,-0.176,-0.1807,-0.1849,-0.1888,-0.1952,-0.1949,-0.197,-0.1959,-0.199,-0.1998,-0.2003,-0.1935,-0.1935,-0.1935,-0.1935,0,0,-0.143,-0.1484,-0.1488,-0.1492,-0.1542,-0.1556,-0.1595,-0.1619,-0.1612,-0.1673,-0.1664,-0.1786,-0.1797,-0.1837,-0.1896,-0.1951,-0.2006,-0.1976,-0.1978,-0.1974,-0.2087,-0.2003,-0.2001,-0.2047,-0.2048,-0.2049,-0.2078,0,-0.1448,-0.149,-0.1508,-0.1536,-0.1554,-0.1576,-0.1584,-0.1606,-0.1627,-0.1632,-0.1705,-0.173,-0.1803,-0.1822,-0.1896,-0.1969,-0.2022,-0.1994,-0.2066,-0.2066,-0.198,-0.2005,-0.1803,-0.1804,-0.2083,-0.2084,-0.2084,0,-0.1462,-0.1486,-0.1511,-0.151,-0.1514,-0.153,-0.1524,-0.1538,-0.1565,-0.1566,-0.1621,-0.1659,-0.175,-0.1796,-0.1945,-0.1926,-0.2002,-0.2064,-0.2068,-0.1984,-0.1993,-0.1821,-0.1804,-0.1923,-0.2093,-0.2092,-0.2091,0,-0.1427,-0.1472,-0.1481,-0.149,-0.1511,-0.1501,-0.1505,-0.1514,-0.1488,-0.1523,-0.1497,-0.1614,-0.1634,-0.1777,-0.1895,-0.193,-0.2028,-0.209,-0.2086,-0.208,-0.1914,-0.189,-0.2003,-0.2186,-0.2186,-0.2186,-0.2186,0,-0.1419,-0.1419,-0.1464,-0.1467,-0.1444,-0.1457,-0.142,-0.1431,-0.1413,-0.1346,-0.1454,-0.1417,-0.163,-0.1703,-0.1856,-0.1958,-0.1998,-0.2071,-0.2084,-0.1911,-0.1888,-0.1988,-0.2085,-0.2187,-0.2187,-0.2187,-0.2186,0,-0.1364,-0.1404,-0.1406,-0.1428,-0.1429,-0.1402,-0.1362,-0.1328,-0.1312,-0.1231,-0.1226,-0.1273,-0.1338,-0.153,-0.1716,-0.1859,-0.2027,-0.2021,-0.1779,-0.1763,-0.1888,-0.1991,-0.2121,-0.2199,-0.2039,-0.2037,-0.2036,0,-0.1328,-0.1335,-0.1368,-0.1361,-0.1369,-0.134,-0.1307,-0.1286,-0.1228,-0.1111,-0.1053,-0.1073,-0.1022,-0.1259,-0.1495,-0.1714,-0.1902,-0.1719,-0.1763,-0.1853,-0.198,-0.2092,-0.2159,-0.1549,-0.1544,-0.154,-0.1536,0,-0.1253,-0.1276,-0.1289,-0.1288,-0.1269,-0.1233,-0.1175,-0.1097,-0.1011,-0.0865,-0.0661,-0.0591,-0.0768,-0.0822,-0.1146,-0.1352,-0.1751,-0.1636,-0.1798,-0.1653,-0.1712,-0.1803,-0.157,-0.1496,-0.15,-0.1503,-0.1505,-0.1507,-0.1181,-0.1179,-0.1207,-0.1198,-0.118,-0.1097,-0.0948,-0.082,-0.0605,-0.0218,-0.0265,0.0091,-0.0143,-0.0518,-0.0908,-0.1333,-0.1495,-0.1432,-0.1561,-0.1678,-0.1716,-0.138,-0.1287,-0.1289,-0.1292,-0.1294,-0.1295,0,-0.1085,-0.1108,-0.1106,-0.1084,-0.1023,-0.1028,-0.0826,-0.0548,-0.0153,0.0218,0.0543,0.0855,0.0531,0.0048,-0.0571,-0.1087,-0.1389,-0.1379,-0.1492,-0.1584,-0.1301,-0.1239,-0.1046,-0.1046,-0.1046,-0.1045,-0.1045,-0.1045,-0.103,-0.1017,-0.104,-0.0939,-0.0896,-0.0626,-0.0435,0.0021,0.0421,0.1172,0.1649,0.1856,0.1653,0.0304,-0.0702,-0.1055,-0.1489,-0.1552,-0.1868,-0.1645,-0.166,-0.1676,-0.1642,-0.1536,-0.1537,-0.2032,-0.2036,-0.204]}],[{"header":{"parameterUnit":"m.s-1","parameterCategory":2,"la1":30.2991,"la2":30.254,"lo1":-89.0895,"lo2":-89.0444,"dy":0.0017,"dx":0.0017,"nx":28,"ny":28,"refTime":"2023-04-17T15:00:00:Z","depth":"2","parameterNumber":2,"parameterNumberName":"U-component_of_CURRENTS"},"data":[0,0,0,0,0,0,0,0,0,0,0,0,0,0,0,0,0,0,0,0,0,0,0,0,0,0,0,0,0,0,0,0,0,0,0,0,0,0,0,0,0,0,0,0,0,0,0,0,0,0,0,0,0,0,0,0,0,0,0.2271,0.2272,0,0.238,0.2381,0.2383,0.2451,0.2451,0.2451,0.2451,0.2623,0.2628,0.2632,0,0,0,0,0,0,0,0,0,0,0,0,0,0.219,0.2191,0.2271,0.2272,0.2273,0.2379,0.2381,0.2383,0.2451,0.2451,0.2451,0.2451,0.2622,0.2627,0.2633,0,0,0,0,0,0,0,0,0,0,0,0,0,0.2259,0.2191,0.2271,0.2316,0.2321,0.2379,0.2381,0.2384,0.2451,0.2451,0.2451,0.2451,0.262,0.2627,0.2634,0.2678,0,0,0.2655,0.2658,0,0,0,0,0,0,0,0,0.2255,0.2262,0.2308,0.2313,0.2318,0.2398,0.2416,0.2484,0.2451,0.2407,0.2451,0.2451,0.2551,0.2563,0.259,0.2686,0.2694,0.2656,0.266,0.2663,0.2665,0,0,0,0,0,0,0,0.225,0.2258,0.2319,0.2309,0.2315,0.2354,0.2363,0.2429,0.2483,0.2411,0.2415,0.2419,0.2555,0.2583,0.2595,0.2696,0.2655,0.2662,0.2666,0.2669,0.2859,0.286,0,0,0,0,0,0,0.2223,0.2253,0.2315,0.2322,0.228,0.2354,0.2366,0.2376,0.2481,0.2495,0.2419,0.2422,0.2571,0.2586,0.2601,0.2668,0.2663,0.2669,0.2673,0.2859,0.286,0.2861,0,0,0,0,0,0,0.2221,0.2228,0.2311,0.2286,0.2298,0.2355,0.2367,0.2378,0.2404,0.2486,0.2502,0.2431,0.2572,0.2591,0.2672,0.2674,0.2672,0.2679,0.2857,0.2859,0.286,0.2796,0,0,0,0,0,0,0.2219,0.2227,0.2227,0.2284,0.2299,0.2326,0.2367,0.238,0.2404,0.2409,0.2502,0.2518,0.2573,0.2661,0.2679,0.2684,0.2684,0.2856,0.2858,0.286,0.2797,0.2795,0.2794,0,0,0,0,0,0.2216,0.2201,0.2227,0.2234,0.2297,0.2325,0.2336,0.238,0.2404,0.2406,0.2489,0.2515,0.2683,0.2668,0.2688,0.2695,0.2856,0.2858,0.286,0.2798,0.2796,0.2794,0,0,0,0,0,0,0.215,0.2208,0.2237,0.2238,0.2273,0.2334,0.2334,0.2374,0.2441,0.245,0.2537,0.2559,0.2632,0.2675,0.2656,0.2756,0.277,0.2776,0.2716,0.2715,0.2713,0.2712,0.269,0,0,0,0,0,0.214,0.2153,0.2208,0.2206,0.2219,0.2281,0.2299,0.2332,0.2394,0.2422,0.2487,0.2569,0.2658,0.2693,0.2767,0.2822,0.2874,0.2838,0.2836,0.2834,0.2848,0.2944,0.2951,0.2867,0.2867,0.2867,0,0,0.2109,0.2144,0.2149,0.2194,0.2226,0.2249,0.2292,0.2308,0.2342,0.2432,0.249,0.2568,0.2675,0.2743,0.2777,0.2776,0.2879,0.2837,0.2834,0.285,0.2946,0.2955,0.2962,0.2869,0.2868,0.2868,0,0,0.2054,0.2088,0.2084,0.2117,0.216,0.2208,0.2209,0.2269,0.2307,0.2372,0.2461,0.2548,0.2644,0.2737,0.2797,0.2832,0.2874,0.2835,0.2818,0.2909,0.2917,0.2924,0.2967,0.2979,0.2824,0.2824,0.2824,0,0.2014,0.2029,0.2082,0.2091,0.2113,0.2187,0.2191,0.2248,0.2328,0.2366,0.2375,0.2568,0.2652,0.2781,0.2797,0.2829,0.2866,0.2813,0.2906,0.2915,0.2924,0.2966,0.298,0.2821,0.2821,0.2822,0.2822,0,0.1972,0.1985,0.1976,0.2031,0.2063,0.2069,0.2153,0.2192,0.2245,0.2309,0.2419,0.2542,0.2656,0.2692,0.2763,0.2869,0.2869,0.2897,0.2905,0.2928,0.2971,0.2987,0.2817,0.2818,0.2819,0.282,0,0,0.1884,0.1936,0.1936,0.1952,0.2032,0.205,0.211,0.2188,0.2224,0.2317,0.2382,0.2551,0.2611,0.2686,0.2779,0.2864,0.2956,0.2897,0.2903,0.2927,0.312,0.3139,0.3158,0.2991,0.2995,0.2997,0.3112,0,0.1835,0.1831,0.1885,0.1895,0.1903,0.1994,0.2043,0.2129,0.2201,0.2279,0.2432,0.2533,0.2611,0.2667,0.2769,0.2931,0.3,0.2921,0.3107,0.3112,0.3118,0.318,0.2733,0.2801,0.3128,0.313,0.3132,0,0.1789,0.1796,0.1783,0.1837,0.1847,0.1867,0.1952,0.2012,0.2154,0.2209,0.2337,0.2456,0.2644,0.2681,0.2948,0.2887,0.2998,0.31,0.3107,0.3166,0.3163,0.2842,0.2818,0.3159,0.3157,0.3155,0.3153,0,0.1717,0.1734,0.1719,0.1736,0.1804,0.1813,0.1864,0.1977,0.2041,0.2176,0.2244,0.2439,0.2579,0.2747,0.299,0.2966,0.3254,0.3245,0.3355,0.3354,0.3038,0.3006,0.3407,0.3407,0.3407,0.3406,0.3406,0,0.1663,0.1655,0.167,0.1667,0.1654,0.1733,0.1753,0.1826,0.1951,0.2054,0.221,0.2354,0.2609,0.2818,0.298,0.3236,0.3253,0.3377,0.3408,0.3001,0.2967,0.3334,0.3324,0.341,0.341,0.3409,0.3408,0,0.1601,0.1613,0.1596,0.1619,0.1619,0.1615,0.1692,0.1733,0.1847,0.1992,0.2054,0.2329,0.2625,0.2856,0.3157,0.325,0.3462,0.3533,0.3028,0.3002,0.3485,0.347,0.3653,0.3655,0.3657,0.3658,0.366,0,0.1571,0.1547,0.1541,0.1523,0.1523,0.1528,0.1557,0.1667,0.1748,0.2008,0.2109,0.2412,0.2668,0.3083,0.3178,0.3397,0.3577,0.3206,0.3117,0.351,0.3521,0.3504,0.3487,0.2631,0.2624,0.2618,0.2613,0,0.1503,0.1494,0.1479,0.1446,0.144,0.1467,0.1527,0.159,0.1779,0.1936,0.2228,0.2439,0.2725,0.2799,0.3046,0.312,0.3131,0.3105,0.3635,0.2682,0.2569,0.2574,0.2586,0.256,0.2566,0.257,0.2573,0.2575,0.1444,0.1414,0.1391,0.1369,0.1373,0.1438,0.1502,0.1625,0.1799,0.202,0.2206,0.2396,0.2413,0.2611,0.2653,0.2679,0.292,0.2848,0.2855,0.2871,0.2777,0.2679,0.2668,0.2674,0.2679,0.2683,0.2687,0,0.1368,0.1354,0.1325,0.1329,0.1361,0.1381,0.1517,0.1616,0.185,0.1928,0.2122,0.1945,0.2011,0.2142,0.2031,0.2126,0.1968,0.2152,0.1872,0.1923,0.197,0.1821,0.1463,0.1461,0.1459,0.1458,0,0,0.1315,0.1283,0.1287,0.1321,0.1349,0.1452,0.1555,0.1684,0.1762,0.1776,0.1757,0.1819,0.1959,0.1623,0.16,0.1548,0.1721,0.1479,0.2426,0.2134,0.2178,0.2311,0.2137,0,0,0,0,0]},{"header":{"parameterUnit":"m.s-1","parameterCategory":2,"la1":30.2991,"la2":30.254,"lo1":-89.0895,"lo2":-89.0444,"dy":0.0017,"dx":0.0017,"nx":28,"ny":28,"refTime":"2023-04-17T15:00:00:Z","depth":"2","parameterNumber":3,"parameterNumberName":"V-component_of_CURRENTS"},"data":[0,0,0,0,0,0,0,0,0,0,0,0,0,0,0,0,0,0,0,0,0,0,0,0,0,0,0,0,0,0,0,0,0,0,0,0,0,0,0,0,0,0,0,0,0,0,0,0,0,0,0,0,0,0,0,0,0,0,0.0878,0.0878,0,0.0892,0.0892,0.0892,0.0829,0.0828,0.0826,0.0824,0.0681,0.0679,0.0677,0,0,0,0,0,0,0,0,0,0,0,0,0,0.087,0.087,0.0878,0.0878,0.0878,0.0892,0.0892,0.0892,0.083,0.0828,0.0826,0.0824,0.0682,0.0679,0.0677,0,0,0,0,0,0,0,0,0,0,0,0,0,0.0876,0.087,0.0878,0.085,0.0848,0.0892,0.0892,0.0892,0.083,0.0828,0.0825,0.0823,0.0683,0.0679,0.0676,0.0706,0,0,0.0666,0.0664,0,0,0,0,0,0,0,0,0.0876,0.0876,0.0854,0.0852,0.085,0.0857,0.0837,0.0822,0.0831,0.0835,0.0824,0.0821,0.0728,0.0721,0.073,0.0699,0.0693,0.0666,0.0664,0.0662,0.0661,0,0,0,0,0,0,0,0.0875,0.0876,0.0882,0.0854,0.0852,0.0862,0.0859,0.0835,0.0792,0.0835,0.0831,0.0835,0.0725,0.0733,0.0725,0.0691,0.0666,0.0663,0.0661,0.0659,0.059,0.0591,0,0,0,0,0,0,0.0876,0.0875,0.0881,0.0882,0.0859,0.0864,0.0861,0.0856,0.0795,0.0785,0.0837,0.0832,0.074,0.0729,0.072,0.0696,0.0662,0.0659,0.0657,0.059,0.059,0.0591,0,0,0,0,0,0,0.0876,0.0876,0.0881,0.0881,0.0882,0.0866,0.0862,0.0858,0.0835,0.08,0.0785,0.0815,0.0738,0.0724,0.0701,0.0691,0.0657,0.0654,0.059,0.059,0.0591,0.0682,0,0,0,0,0,0,0.0875,0.0876,0.0862,0.0881,0.0882,0.0901,0.0865,0.086,0.0845,0.0837,0.0777,0.0763,0.0735,0.0706,0.0698,0.0686,0.0652,0.059,0.059,0.059,0.0679,0.0686,0.0691,0,0,0,0,0,0.0875,0.0874,0.0861,0.0861,0.0867,0.0902,0.0904,0.0883,0.0846,0.085,0.0816,0.0763,0.07,0.0706,0.0694,0.0681,0.059,0.059,0.059,0.0676,0.0684,0.0691,0,0,0,0,0,0,0.0865,0.0868,0.0854,0.0852,0.0871,0.0891,0.0887,0.0876,0.0855,0.0828,0.0785,0.0771,0.0747,0.0703,0.071,0.066,0.0628,0.0626,0.0697,0.0704,0.071,0.073,0.0649,0,0,0,0,0,0.0859,0.0851,0.087,0.0867,0.0872,0.0874,0.0878,0.0869,0.0862,0.0848,0.0811,0.0765,0.0748,0.0717,0.0695,0.0674,0.0632,0.065,0.0656,0.0662,0.067,0.0627,0.063,0.0592,0.0592,0.0592,0,0,0.0853,0.0855,0.0848,0.0864,0.0867,0.0901,0.0868,0.0874,0.0896,0.0835,0.0828,0.0792,0.0751,0.0739,0.0719,0.0694,0.0648,0.0662,0.0668,0.0672,0.0627,0.0631,0.0635,0.0592,0.0592,0.0592,0,0,0.0859,0.0841,0.0841,0.0865,0.0876,0.0896,0.0894,0.0903,0.0892,0.0897,0.0861,0.0836,0.0784,0.0776,0.0761,0.0785,0.0694,0.074,0.0774,0.0733,0.0736,0.0738,0.0683,0.0679,0.0729,0.0729,0.0729,0,0.0838,0.0858,0.0852,0.0875,0.0903,0.0896,0.0931,0.0939,0.0939,0.0931,0.0894,0.0852,0.0816,0.0823,0.0826,0.0802,0.0744,0.0755,0.0743,0.0744,0.0745,0.0687,0.0682,0.0733,0.0733,0.0733,0.0732,0,0.0864,0.088,0.0888,0.0918,0.0952,0.0978,0.1008,0.1008,0.0985,0.0986,0.0969,0.0941,0.0901,0.0887,0.0862,0.0846,0.0792,0.077,0.073,0.0755,0.0692,0.0685,0.074,0.0738,0.0737,0.0736,0,0,0.0792,0.0884,0.0879,0.0923,0.0976,0.1013,0.1048,0.1085,0.1068,0.1067,0.1064,0.105,0.0996,0.0976,0.0935,0.0904,0.0863,0.0826,0.0822,0.0782,0.0738,0.0747,0.0739,0.0819,0.0819,0.0818,0.069,0,0.0801,0.0871,0.0919,0.1001,0.1047,0.108,0.1123,0.1148,0.1117,0.1107,0.1098,0.1059,0.104,0.0983,0.0971,0.0899,0.0848,0.0898,0.071,0.0705,0.072,0.0734,0.0606,0.0484,0.0683,0.0681,0.0681,0,0.0789,0.0852,0.0926,0.1053,0.1072,0.1113,0.1148,0.1187,0.1179,0.1126,0.1099,0.1069,0.1062,0.101,0.0931,0.0948,0.0839,0.0784,0.0777,0.0751,0.0703,0.0491,0.0464,0.0669,0.0669,0.067,0.0671,0,0.0738,0.0855,0.092,0.0959,0.1087,0.1107,0.1165,0.1166,0.1199,0.1108,0.109,0.1058,0.103,0.0947,0.0861,0.0856,0.0757,0.0733,0.0644,0.0641,0.0483,0.0469,0.0636,0.0636,0.0636,0.0636,0.0637,0,0.0726,0.0778,0.0891,0.0926,0.0998,0.1085,0.1122,0.1109,0.1141,0.1192,0.1091,0.1127,0.1001,0.0961,0.0861,0.0757,0.0748,0.0656,0.0617,0.0511,0.0502,0.0625,0.0625,0.0632,0.0633,0.0634,0.0634,0,0.0653,0.0727,0.0807,0.093,0.097,0.1004,0.1151,0.1174,0.1154,0.1214,0.1198,0.1169,0.1093,0.0979,0.0823,0.075,0.0639,0.0577,0.0464,0.0417,0.0542,0.0548,0.0472,0.0472,0.0471,0.0471,0.047,0,0.0626,0.0653,0.0778,0.0817,0.0864,0.0957,0.103,0.1124,0.1183,0.1291,0.1345,0.128,0.1296,0.1085,0.0825,0.0603,0.0628,0.036,0.0359,0.056,0.0529,0.0536,0.0543,0.0157,0.0154,0.0152,0.015,0,0.0577,0.0593,0.0666,0.0744,0.0816,0.0958,0.1089,0.1174,0.1318,0.1403,0.1545,0.1585,0.134,0.1067,0.0713,0.0573,0.0399,0.0312,0.0511,0.0259,0.0263,0.0234,0.025,0.0129,0.0131,0.0133,0.0134,0.0135,0.0511,0.0539,0.0612,0.0695,0.0784,0.0944,0.1084,0.1273,0.1467,0.1661,0.1695,0.1694,0.1319,0.0836,0.0545,0.0216,0.0307,0.0167,0.0172,0.0181,0.0208,0.0216,0.0075,0.0076,0.0078,0.0079,0.008,0,0.0455,0.0509,0.0578,0.071,0.0819,0.0884,0.1128,0.1333,0.1602,0.1703,0.1835,0.1447,0.1097,0.0737,0.0195,-0.0053,-0.0104,-0.0118,-0.0171,-0.0149,-0.013,-0.012,-0.034,-0.0341,-0.0342,-0.0343,0,0,0.0433,0.0488,0.056,0.0725,0.0816,0.1033,0.1186,0.1516,0.1667,0.1811,0.1748,0.1607,0.1128,0.0632,0.0226,-0.005,-0.0015,-0.01,0.0251,0.0253,0.0276,0.003,0.0071,0,0,0,0,0]}],[{"header":{"parameterUnit":"m.s-1","parameterCategory":2,"la1":30.2991,"la2":30.254,"lo1":-89.0895,"lo2":-89.0444,"dy":0.0017,"dx":0.0017,"nx":28,"ny":28,"refTime":"2023-04-17T15:00:00:Z","depth":"4","parameterNumber":2,"parameterNumberName":"U-component_of_CURRENTS"},"data":[0,0,0,0,0,0,0,0,0,0,0,0,0,0,0,0,0,0,0,0,0,0,0,0,0,0,0,0,0,0,0,0,0,0,0,0,0,0,0,0,0,0,0,0,0,0,0,0,0,0,0,0,0,0,0,0,0,0,-0.0108,-0.0108,0,-0.0111,-0.0112,-0.0112,-0.0074,-0.0072,-0.0071,-0.007,-0.0131,-0.0134,-0.0137,0,0,0,0,0,0,0,0,0,0,0,0,0,-0.0092,-0.0092,-0.0108,-0.0108,-0.0107,-0.0111,-0.0112,-0.0112,-0.0074,-0.0072,-0.0071,-0.0069,-0.013,-0.0134,-0.0137,0,0,0,0,0,0,0,0,0,0,0,0,0,-0.0101,-0.0093,-0.0108,-0.0086,-0.0084,-0.0111,-0.0112,-0.0112,-0.0074,-0.0072,-0.007,-0.0068,-0.0129,-0.0133,-0.0138,-0.0205,0,0,-0.0151,-0.0153,0,0,0,0,0,0,0,0,-0.01,-0.0102,-0.009,-0.0088,-0.0085,-0.0087,-0.0128,-0.0145,-0.0075,-0.0082,-0.007,-0.0067,-0.0121,-0.0126,-0.0135,-0.0208,-0.0211,-0.0151,-0.0154,-0.0156,-0.0157,0,0,0,0,0,0,0,-0.01,-0.0101,-0.0113,-0.009,-0.0087,-0.0084,-0.0084,-0.0131,-0.0117,-0.0081,-0.0077,-0.0073,-0.0121,-0.0131,-0.0137,-0.0212,-0.0151,-0.0155,-0.0158,-0.0159,-0.0266,-0.0267,0,0,0,0,0,0,-0.0094,-0.0101,-0.0112,-0.0112,-0.0084,-0.0086,-0.0085,-0.0091,-0.0115,-0.0115,-0.0075,-0.0071,-0.0125,-0.0131,-0.0139,-0.0108,-0.0156,-0.016,-0.0162,-0.0266,-0.0266,-0.0267,0,0,0,0,0,0,-0.0094,-0.0095,-0.0112,-0.0103,-0.0105,-0.0088,-0.0095,-0.0092,-0.0048,-0.0109,-0.011,-0.0026,-0.0123,-0.0132,-0.0152,-0.0114,-0.0162,-0.0166,-0.0266,-0.0266,-0.0266,-0.012,0,0,0,0,0,0,-0.0093,-0.0096,-0.0075,-0.0103,-0.0105,-0.0103,-0.0097,-0.0094,-0.005,-0.0044,-0.0069,-0.0076,-0.0122,-0.0145,-0.0156,-0.0121,-0.0169,-0.0266,-0.0266,-0.0266,-0.0124,-0.0115,-0.0107,0,0,0,0,0,-0.0093,-0.0091,-0.0075,-0.0074,-0.0086,-0.0102,-0.0102,-0.0086,-0.0049,-0.0036,-0.0052,-0.0072,-0.0155,-0.0149,-0.0162,-0.0127,-0.0265,-0.0266,-0.0266,-0.0128,-0.0117,-0.0107,0,0,0,0,0,0,-0.0059,-0.0087,-0.007,-0.0069,-0.0066,-0.0093,-0.0063,-0.0054,-0.0054,-0.0021,-0.0078,-0.0088,-0.0095,-0.0142,-0.0133,-0.0165,-0.0213,-0.0216,-0.0104,-0.0094,-0.0085,-0.0023,-0.0173,0,0,0,0,0,-0.0045,-0.0049,-0.0068,-0.0052,-0.0043,-0.0038,-0.0028,-0.0013,-0.0026,-0.0017,-0.0028,-0.006,-0.012,-0.0125,-0.0179,-0.0191,-0.022,-0.0181,-0.0172,-0.0164,-0.0127,-0.0182,-0.0173,-0.0268,-0.0268,-0.0268,0,0,-0.0024,-0.0034,-0.0033,-0.0043,-0.0027,-0.0022,-0.0025,0.0013,0.0025,-0.003,0.0013,-0.0027,-0.0121,-0.0138,-0.0144,-0.0159,-0.0149,-0.0165,-0.0157,-0.0123,-0.0182,-0.0172,-0.0163,-0.0269,-0.0269,-0.0268,0,0,0.0004,0.0015,0.002,0.0023,0.0051,0.0039,0.0063,0.0078,0.01,0.0122,0.0068,0.0053,0.0012,-0.0061,-0.0109,-0.0091,-0.011,-0.0092,0.0019,-0.0035,-0.0026,-0.0019,-0.0011,-0.0004,-0.0076,-0.0076,-0.0075,0,0.0052,0.0039,0.0026,0.0039,0.0059,0.0073,0.01,0.0098,0.0113,0.013,0.0164,0.0097,0.0039,-0.0042,-0.0009,-0.0067,-0.0064,-0.0005,-0.0018,-0.0012,-0.0007,-0.0001,0.0004,-0.0069,-0.007,-0.007,-0.0071,0,0.0062,0.0079,0.0094,0.0105,0.0119,0.0152,0.0148,0.0191,0.0247,0.0244,0.0251,0.0183,0.0164,0.0122,0.0084,0.0074,0.0078,-0.0006,-0.0029,0.0012,0.0015,0.0018,-0.0059,-0.0061,-0.0063,-0.0065,0,0,0.0124,0.0103,0.0126,0.014,0.0168,0.0176,0.0216,0.0231,0.027,0.0306,0.0342,0.0277,0.0314,0.0262,0.0196,0.0162,0.0216,0.015,0.0143,0.0189,0.0178,0.0245,0.0254,0.0155,0.0155,0.0156,0.0179,0,0.0163,0.0175,0.0167,0.0212,0.0218,0.0251,0.0278,0.0303,0.0341,0.0377,0.0331,0.0347,0.0334,0.0373,0.0339,0.0217,0.0229,0.0222,0.0105,0.0103,0.0181,0.026,0.0157,0.0181,0.0182,0.0183,0.0183,0,0.0187,0.0186,0.0229,0.0251,0.0271,0.0324,0.04,0.0424,0.0445,0.0494,0.0526,0.0506,0.0487,0.0471,0.0373,0.039,0.0355,0.0261,0.0257,0.0278,0.0176,0.0116,0.0188,0.0187,0.0187,0.0187,0.0186,0,0.0208,0.0237,0.0275,0.0287,0.0315,0.0395,0.0451,0.0497,0.0521,0.0606,0.0644,0.062,0.063,0.0559,0.0455,0.0451,0.0319,0.0252,0.0274,0.0278,0.0143,0.0134,0.0224,0.0224,0.0224,0.0224,0.0224,0,0.0229,0.0259,0.0311,0.0332,0.0412,0.0459,0.0554,0.0617,0.0679,0.0686,0.0745,0.0711,0.0666,0.0577,0.0491,0.0416,0.0364,0.0346,0.0297,0.0206,0.0204,0.0148,0.0138,0.0225,0.0225,0.0225,0.0224,0,0.024,0.0262,0.0295,0.0377,0.0417,0.0504,0.0615,0.0653,0.0758,0.0774,0.0826,0.0806,0.0748,0.0656,0.0509,0.0474,0.0358,0.034,0.0311,0.0249,0.0362,0.036,0.0423,0.0426,0.0428,0.043,0.0432,0,0.0232,0.0255,0.0336,0.0366,0.0431,0.054,0.0595,0.0709,0.0729,0.0766,0.0744,0.0761,0.0733,0.0586,0.05,0.0427,0.0392,0.0402,0.0382,0.0442,0.0386,0.038,0.0374,0.0435,0.0436,0.0436,0.0437,0,0.021,0.0267,0.0293,0.0357,0.0442,0.0479,0.0579,0.06,0.0693,0.0751,0.0719,0.0722,0.0655,0.058,0.0579,0.0468,0.0431,0.0427,0.0421,0.0402,0.0457,0.0398,0.039,0.0445,0.0444,0.0443,0.0443,0,0.0213,0.0228,0.027,0.0332,0.0403,0.0436,0.0482,0.0525,0.0576,0.0665,0.0607,0.0596,0.0606,0.0594,0.0502,0.052,0.0522,0.0523,0.0512,0.0503,0.0519,0.06,0.0636,0,0,0,0,0,0.0196,0.0192,0.0223,0.0277,0.0343,0.0382,0.0453,0.0487,0.0565,0.0564,0.0625,0.0573,0.0584,0.0526,0.0561,0.0522,0.0499,0.0563,0.0487,0.049,0.0481,0.0493,0,0,0,0,0,0,0.0173,0.0191,0.0193,0.0218,0.0252,0.0307,0.0362,0.0405,0.0411,0.0495,0.0472,0.0578,0.054,0.0555,0.0548,0.0553,0.0514,0.0582,0.0584,0.0496,0.0487,0.048,0.0489,0,0,0,0,0]},{"header":{"parameterUnit":"m.s-1","parameterCategory":2,"la1":30.2991,"la2":30.254,"lo1":-89.0895,"lo2":-89.0444,"dy":0.0017,"dx":0.0017,"nx":28,"ny":28,"refTime":"2023-04-17T15:00:00:Z","depth":"4","parameterNumber":3,"parameterNumberName":"V-component_of_CURRENTS"},"data":[0,0,0,0,0,0,0,0,0,0,0,0,0,0,0,0,0,0,0,0,0,0,0,0,0,0,0,0,0,0,0,0,0,0,0,0,0,0,0,0,0,0,0,0,0,0,0,0,0,0,0,0,0,0,0,0,0,0,-0.0071,-0.0072,0,-0.0215,-0.0217,-0.0219,-0.0249,-0.0248,-0.0246,-0.0245,-0.0281,-0.0283,-0.0286,0,0,0,0,0,0,0,0,0,0,0,0,0,0.0071,0.0069,-0.007,-0.0072,-0.0073,-0.0214,-0.0217,-0.0219,-0.025,-0.0248,-0.0246,-0.0244,-0.028,-0.0283,-0.0286,0,0,0,0,0,0,0,0,0,0,0,0,0,-0.0028,0.0068,-0.007,-0.0102,-0.0106,-0.0214,-0.0217,-0.022,-0.025,-0.0248,-0.0246,-0.0243,-0.0279,-0.0283,-0.0286,-0.0352,0,0,-0.0297,-0.0299,0,0,0,0,0,0,0,0,-0.0022,-0.0033,-0.0096,-0.01,-0.0105,-0.0208,-0.018,-0.0257,-0.0251,-0.02,-0.0245,-0.0242,-0.0245,-0.0252,-0.0291,-0.0354,-0.0355,-0.0297,-0.0299,-0.0301,-0.0302,0,0,0,0,0,0,0,-0.0015,-0.0028,-0.0132,-0.0098,-0.0103,-0.0146,-0.0157,-0.0196,-0.0235,-0.0204,-0.0206,-0.0216,-0.0247,-0.0288,-0.0292,-0.0356,-0.0297,-0.03,-0.0302,-0.0304,-0.0435,-0.0437,0,0,0,0,0,0,0.0014,-0.0021,-0.0127,-0.0136,-0.0052,-0.0149,-0.0162,-0.0181,-0.0237,-0.0243,-0.0217,-0.0216,-0.0283,-0.0288,-0.0293,-0.0317,-0.0301,-0.0304,-0.0306,-0.0434,-0.0436,-0.0437,0,0,0,0,0,0,0.0018,0.0006,-0.0121,-0.0077,-0.0096,-0.0153,-0.0174,-0.0184,-0.0201,-0.0247,-0.0251,-0.0219,-0.0282,-0.0288,-0.0335,-0.0319,-0.0306,-0.0309,-0.0432,-0.0434,-0.0436,-0.0399,0,0,0,0,0,0,0.0022,0.0008,0.0021,-0.0076,-0.0097,-0.0175,-0.0176,-0.0189,-0.0209,-0.0209,-0.025,-0.0253,-0.0281,-0.033,-0.0338,-0.0324,-0.0312,-0.043,-0.0433,-0.0436,-0.0399,-0.04,-0.0401,0,0,0,0,0,0.0028,0.0028,0.0022,0.001,-0.0083,-0.0176,-0.0192,-0.0227,-0.0211,-0.0231,-0.0266,-0.0251,-0.0351,-0.0335,-0.0344,-0.033,-0.0429,-0.0432,-0.0435,-0.0398,-0.0399,-0.0401,0,0,0,0,0,0,0.0098,0.0023,0.0014,-0.0006,-0.0076,-0.0178,-0.0179,-0.0217,-0.0265,-0.0238,-0.0284,-0.0292,-0.0331,-0.0347,-0.0327,-0.038,-0.0382,-0.0387,-0.035,-0.0352,-0.0353,-0.0337,-0.0315,0,0,0,0,0,0.0119,0.0111,0.0015,0.0008,-0.0017,-0.0094,-0.0124,-0.0158,-0.0219,-0.0236,-0.0269,-0.0303,-0.0361,-0.0365,-0.0418,-0.0444,-0.0447,-0.044,-0.0441,-0.0441,-0.0439,-0.0452,-0.0452,-0.0447,-0.0447,-0.0447,0,0,0.015,0.0111,0.0108,0.0025,-0.0016,-0.008,-0.0106,-0.0144,-0.0199,-0.0231,-0.0279,-0.0315,-0.0377,-0.0421,-0.0434,-0.0419,-0.0443,-0.0445,-0.0445,-0.0442,-0.0455,-0.0455,-0.0455,-0.0449,-0.0449,-0.0449,0,0,0.0192,0.017,0.017,0.0107,0.0045,-0.003,-0.0036,-0.0129,-0.0161,-0.0228,-0.027,-0.0307,-0.0368,-0.0424,-0.0459,-0.0499,-0.0465,-0.0488,-0.0457,-0.0469,-0.0468,-0.0468,-0.0456,-0.0455,-0.0466,-0.0466,-0.0466,0,0.0242,0.0214,0.0154,0.012,0.0081,-0.0005,-0.0041,-0.0119,-0.0216,-0.0247,-0.0225,-0.0346,-0.0381,-0.0469,-0.0471,-0.0499,-0.0479,-0.044,-0.0466,-0.0466,-0.0466,-0.0454,-0.0453,-0.0465,-0.0465,-0.0465,-0.0465,0,0.025,0.0237,0.0232,0.0157,0.0092,0.0057,-0.0066,-0.0118,-0.015,-0.0225,-0.0293,-0.0355,-0.0402,-0.043,-0.0454,-0.0483,-0.046,-0.0478,-0.0451,-0.0463,-0.0451,-0.0451,-0.0463,-0.0463,-0.0464,-0.0464,0,0,0.0343,0.026,0.027,0.0245,0.0117,0.0063,-0.0032,-0.0152,-0.0187,-0.0266,-0.0313,-0.0406,-0.0392,-0.0432,-0.0462,-0.0477,-0.0454,-0.0446,-0.0448,-0.0413,-0.0438,-0.0442,-0.0442,-0.0448,-0.0448,-0.0448,-0.0422,0,0.0381,0.0359,0.0287,0.0238,0.0198,0.0083,0.0002,-0.0114,-0.0193,-0.0266,-0.0352,-0.0378,-0.0411,-0.0368,-0.0411,-0.0466,-0.0452,-0.0457,-0.0451,-0.0451,-0.0435,-0.0443,-0.0449,-0.0422,-0.0422,-0.0422,-0.0422,0,0.04,0.0385,0.0379,0.0284,0.0263,0.0242,0.0125,0.0039,-0.0118,-0.0153,-0.022,-0.029,-0.0355,-0.0338,-0.0424,-0.0409,-0.0394,-0.0433,-0.0432,-0.0449,-0.0455,-0.0415,-0.0421,-0.0421,-0.0421,-0.0421,-0.0421,0,0.0477,0.0432,0.045,0.0417,0.03,0.0319,0.0277,0.013,0.0066,-0.0018,-0.0051,-0.0175,-0.0183,-0.0241,-0.034,-0.0333,-0.0433,-0.0437,-0.0437,-0.0436,-0.0453,-0.0454,-0.0442,-0.0442,-0.0442,-0.0442,-0.0442,0,0.05,0.0508,0.0539,0.0535,0.0567,0.0473,0.0474,0.0402,0.0309,0.0214,0.009,-0.0023,-0.0144,-0.0265,-0.0323,-0.0401,-0.0404,-0.0431,-0.0434,-0.0438,-0.0438,-0.0451,-0.0452,-0.0441,-0.0442,-0.0442,-0.0442,0,0.0543,0.0555,0.0565,0.0573,0.0603,0.0649,0.0632,0.06,0.0539,0.042,0.042,0.0144,-0.0014,-0.0169,-0.0289,-0.0352,-0.0433,-0.0435,-0.0423,-0.0427,-0.0419,-0.0419,-0.0417,-0.0417,-0.0417,-0.0417,-0.0417,0,0.0546,0.0582,0.0643,0.0684,0.073,0.0793,0.0805,0.076,0.0682,0.0458,0.0371,0.0207,0.0013,-0.0175,-0.0339,-0.0426,-0.0432,-0.0425,-0.043,-0.0415,-0.0419,-0.0419,-0.0419,-0.0417,-0.0417,-0.0417,-0.0417,0,0.0544,0.0613,0.0631,0.0749,0.0837,0.0848,0.0872,0.0848,0.0713,0.0638,0.0384,0.0223,0.0004,-0.0201,-0.0242,-0.0338,-0.0425,-0.0425,-0.0425,-0.043,-0.0415,-0.0419,-0.0419,-0.0417,-0.0417,-0.0417,-0.0417,0,0.0576,0.0614,0.0684,0.0783,0.0881,0.0909,0.0897,0.0812,0.0759,0.0535,0.042,0.0175,0.0012,-0.0162,-0.0268,-0.0306,-0.0309,-0.0281,-0.0289,-0.029,-0.0285,-0.025,-0.0198,0,0,0,0,0,0.0582,0.0628,0.0697,0.0793,0.0884,0.094,0.0907,0.0851,0.0735,0.0608,0.0542,0.0333,0.012,-0.0079,-0.0099,-0.0265,-0.0314,-0.0294,-0.0281,-0.0417,-0.0417,-0.0437,0,0,0,0,0,0,0.059,0.0649,0.0685,0.0796,0.0876,0.095,0.0957,0.0858,0.0743,0.0612,0.0479,0.0375,0.0144,0.0187,-0.0078,-0.0119,-0.0106,-0.0423,-0.0423,-0.0417,-0.0417,-0.0417,-0.0437,0,0,0,0,0]}]]